THOR ABLESTAR DEB, 148

Orbit data source: Space-Track

THOR ABLESTAR DEB, 148 is space debris in LEO originally from a launch on Thu, 29 Jun 1961 UTC launched from the Air Force Eastern Test Range (AFETR). Debris objects in space refer to the collection of defunct objects orbiting the Earth. Examples of debris include non-operational satellites, rocket bodies, and fragments generated from explosions, collisions, or faulty payload assembly.

Loading next visibility...
Identifier
148, 1961-015AJ
Orbit
LEO
Country
Flag of USUS
Related business
Manufacturer
Unknown
Mission
Spacecraft
Bus & Motor
Unknown
Mass
Unknown
Launch date (UTC)
1961-06-29 (65 years ago)
Launch vehicle
Unknown
Launch site
Air Force Eastern Test Range (AFETR)
Object type
Payload
Rocket body
Debris
Shape & HBR
Unknown shape, 0.1 m
Radar Cross Section
Medium (>0.1 m² and <1 m²)

Expand to show TLE details & history
Last TLE update: 6 hours ago

TLE from 6 hours ago
0 THOR ABLESTAR DEB
1 00148U 61015AJ  26126.96378661  .00000512  00000-0  30339-3 0  9998
2 00148  65.7719 222.5592 0146146 339.1275  20.3875 14.10764986753162
Epoch: 2026-05-06T23:07Z
TLE epoch observation values (Epoch: 2026-05-06T23:07:51.163Z)
Latitude
-0.00002°
Longitude
10.77928°
Altitude
759.841 km
Speed
7.526 km/s
True Right ascension
14h 50m 14s
True Declination
0° 00' 00"
Sunlit
Object was in full shadow at epoch
Visualization orbit readout
Latitude
Unknown
Longitude
Unknown
Altitude
Unknown
Speed
Unknown
Apparent Right ascension
Unknown
Apparent Declination
Unknown
Sunlit
N/A
Visualization observer readout
Local Sidereal Time
12:44:34
Azimuth
Unknown
Elevation
Unknown
Doppler factor
Unknown
Orbital elements
Apogee altitude
960.966 km
Perigee altitude
749.54 km
Semi-major axis
7,233.39 km
Eccentricity
0.01461
Inclination
65.7719°
RAAN
222.5592°
Arg. of periapsis
339.1275°
True anomaly
20.98106°
Mean anomaly
20.3875°
Eccentric anomaly
20.68325°
Mean motion
3.52801 °/min
Orbital period
102.04 mins
BSTAR
0.00030339

Documentation

Showing up to 5 results
|